When you browse on this site, cookies collect data to enhance your experience and personalize the content and advertising you see.
Visit our Privacy Policy to learn more. By continuing to use the site, you agree to this use of cookies and data.
  • In United Kingdom
  • List of Countries
  • For 7 days
  • Water Temperature
  • Satellite Maps
  • Weather Map
  • Weather Widgets
  • user-avatar
    Login

    Hourly Weather Shapchino

    Today, 23 April, Tuesday

    Time Temperature Precipitation Wind Pressure Humidity
    00:00 +10°C° 0 mm 2 mps 757 mmHg 56%
    01:00 +9°C° 0 mm 2 mps 757 mmHg 58%
    02:00 +9°C° 0 mm 2 mps 757 mmHg 61%
    03:00 +8°C° 0 mm 2 mps 757 mmHg 64%
    04:00 +8°C° 0 mm 2 mps 757 mmHg 67%
    05:00 +8°C° 0 mm 2 mps 757 mmHg 70%
    06:00 +8°C° 0 mm 2 mps 757 mmHg 73%
    07:00 +9°C° 0 mm 2 mps 757 mmHg 69%
    08:00 +11°C° 0 mm 3 mps 757 mmHg 64%
    09:00 +13°C° 0 mm 3 mps 757 mmHg 59%
    10:00 +16°C° 0 mm 3 mps 757 mmHg 51%
    11:00 +17°C° 0 mm 4 mps 757 mmHg 43%
    12:00 +19°C° 0 mm 5 mps 757 mmHg 35%
    13:00 +19°C° 0 mm 5 mps 757 mmHg 35%
    14:00 +19°C° 0 mm 5 mps 757 mmHg 35%
    15:00 +20°C° 0 mm 5 mps 756 mmHg 36%
    16:00 +19°C° 0 mm 5 mps 756 mmHg 39%
    17:00 +18°C° 0 mm 4 mps 756 mmHg 43%
    18:00 +18°C° 0 mm 3 mps 756 mmHg 46%
    19:00 +16°C° 0 mm 3 mps 756 mmHg 50%
    20:00 +13°C° 0 mm 3 mps 756 mmHg 54%
    21:00 +13°C° 0 mm 2 mps 756 mmHg 58%
    22:00 +12°C° 0 mm 2 mps 756 mmHg 60%
    23:00 +12°C° 0 mm 2 mps 757 mmHg 62%

    Tomorrow, 24 April, Wednesday

    Time Temperature Precipitation Wind Pressure Humidity
    00:00 +10°C° 0 mm 2 mps 757 mmHg 65%
    01:00 +10°C° 0 mm 2 mps 757 mmHg 66%
    02:00 +9°C° 0 mm 2 mps 757 mmHg 68%
    03:00 +9°C° 0 mm 2 mps 757 mmHg 70%
    04:00 +9°C° 0 mm 2 mps 757 mmHg 71%
    05:00 +9°C° 0 mm 2 mps 757 mmHg 72%
    06:00 +8°C° 0 mm 3 mps 758 mmHg 72%
    07:00 +10°C° 0 mm 3 mps 758 mmHg 66%
    08:00 +12°C° 0 mm 3 mps 758 mmHg 59%
    09:00 +14°C° 0 mm 3 mps 758 mmHg 52%
    10:00 +17°C° 0 mm 4 mps 758 mmHg 47%
    11:00 +18°C° 0 mm 4 mps 757 mmHg 42%
    12:00 +20°C° 0 mm 5 mps 757 mmHg 36%
    13:00 +20°C° 0 mm 5 mps 757 mmHg 36%
    14:00 +21°C° 0 mm 5 mps 757 mmHg 35%
    15:00 +22°C° 0 mm 5 mps 757 mmHg 34%
    16:00 +21°C° 0 mm 4 mps 757 mmHg 38%
    17:00 +21°C° 0 mm 3 mps 756 mmHg 41%
    18:00 +20°C° 0 mm 3 mps 756 mmHg 45%
    19:00 +18°C° 0 mm 3 mps 756 mmHg 49%
    20:00 +17°C° 0 mm 2 mps 757 mmHg 53%
    21:00 +15°C° 0 mm 2 mps 757 mmHg 57%
    22:00 +14°C° 0 mm 2 mps 757 mmHg 59%
    23:00 +14°C° 0 mm 2 mps 757 mmHg 61%

    Day after tomorrow, 25 April, Thursday

    Time Temperature Precipitation Wind Pressure Humidity
    00:00 +13°C° 0 mm 2 mps 757 mmHg 63%
    01:00 +12°C° 0 mm 2 mps 757 mmHg 66%
    02:00 +12°C° 0 mm 2 mps 757 mmHg 68%
    03:00 +12°C° 0 mm 2 mps 757 mmHg 70%
    04:00 +10°C° 0 mm 2 mps 757 mmHg 71%
    05:00 +10°C° 0 mm 2 mps 757 mmHg 73%
    06:00 +10°C° 0 mm 2 mps 757 mmHg 74%
    07:00 +13°C° 0 mm 2 mps 757 mmHg 68%
    08:00 +14°C° 0 mm 3 mps 757 mmHg 61%
    09:00 +17°C° 0 mm 3 mps 757 mmHg 54%
    10:00 +18°C° 0 mm 3 mps 757 mmHg 47%
    11:00 +19°C° 0 mm 4 mps 757 mmHg 40%
    12:00 +20°C° 0 mm 4 mps 757 mmHg 33%
    13:00 +21°C° 0 mm 4 mps 757 mmHg 32%
    14:00 +21°C° 0 mm 4 mps 757 mmHg 31%
    15:00 +22°C° 0 mm 4 mps 756 mmHg 31%
    16:00 +21°C° 0 mm 3 mps 756 mmHg 34%
    17:00 +21°C° 0 mm 3 mps 756 mmHg 38%
    18:00 +20°C° 0 mm 2 mps 756 mmHg 41%
    19:00 +18°C° 0 mm 2 mps 756 mmHg 45%
    20:00 +18°C° 0 mm 1 mps 756 mmHg 49%
    21:00 +15°C° 0 mm 1 mps 756 mmHg 53%
    22:00 +14°C° 0 mm 0 mps 756 mmHg 53%
    23:00 +14°C° 0 mm 0 mps 756 mmHg 53%

    26 April, Friday

    Time Temperature Precipitation Wind Pressure Humidity
    00:00 +13°C° 0 mm 0 mps 756 mmHg 53%
    01:00 +13°C° 0 mm 0 mps 756 mmHg 53%
    02:00 +13°C° 0 mm 0 mps 756 mmHg 53%
    03:00 +13°C° 0 mm 0 mps 756 mmHg 53%
    04:00 +13°C° 0 mm 0 mps 756 mmHg 56%
    05:00 +13°C° 0 mm 0 mps 756 mmHg 58%
    06:00 +12°C° 0 mm 0 mps 755 mmHg 61%
    07:00 +14°C° 0 mm 0 mps 756 mmHg 56%
    08:00 +16°C° 0 mm 0 mps 756 mmHg 51%
    09:00 +18°C° 0 mm 0 mps 756 mmHg 46%
    10:00 +19°C° 0 mm 0 mps 755 mmHg 42%
    11:00 +20°C° 0 mm 0 mps 755 mmHg 38%
    12:00 +21°C° 0 mm 0 mps 755 mmHg 34%
    13:00 +23°C° 0 mm 1 mps 755 mmHg 36%
    14:00 +22°C° 0 mm 1 mps 754 mmHg 38%
    15:00 +21°C° 0 mm 2 mps 754 mmHg 39%
    16:00 +21°C° 0 mm 1 mps 754 mmHg 42%
    17:00 +21°C° 0 mm 1 mps 753 mmHg 44%
    18:00 +21°C° 0 mm 1 mps 753 mmHg 46%
    19:00 +18°C° 0 mm 2 mps 753 mmHg 54%
    20:00 +17°C° 0 mm 3 mps 753 mmHg 62%
    21:00 +14°C° 0 mm 3 mps 752 mmHg 70%
    22:00 +13°C° 0 mm 3 mps 752 mmHg 75%
    23:00 +14°C° 0 mm 2 mps 752 mmHg 79%

    27 April, Saturday

    Time Temperature Precipitation Wind Pressure Humidity
    00:00 +13°C° 0 mm 1 mps 752 mmHg 83%
    01:00 +13°C° 0 mm 1 mps 752 mmHg 84%
    02:00 +13°C° 0 mm 1 mps 751 mmHg 85%
    03:00 +12°C° 0 mm 1 mps 751 mmHg 86%
    04:00 +12°C° 0 mm 1 mps 751 mmHg 88%
    05:00 +12°C° 0 mm 1 mps 751 mmHg 89%
    06:00 +12°C° 0 mm 2 mps 750 mmHg 91%
    07:00 +13°C° 0 mm 2 mps 750 mmHg 84%
    08:00 +15°C° 0 mm 2 mps 750 mmHg 76%
    09:00 +17°C° 0 mm 2 mps 749 mmHg 68%
    10:00 +18°C° 0.1 mm 3 mps 749 mmHg 60%
    11:00 +20°C° 0.1 mm 3 mps 749 mmHg 52%
    12:00 +21°C° 0.1 mm 4 mps 748 mmHg 45%
    13:00 +21°C° 0 mm 3 mps 748 mmHg 45%
    14:00 +21°C° 0 mm 3 mps 747 mmHg 45%
    15:00 +20°C° 0 mm 3 mps 747 mmHg 46%
    16:00 +20°C° 0 mm 3 mps 747 mmHg 48%
    17:00 +20°C° 0 mm 2 mps 747 mmHg 50%
    18:00 +20°C° 0 mm 2 mps 746 mmHg 52%
    19:00 +18°C° 0 mm 2 mps 746 mmHg 56%
    20:00 +17°C° 0 mm 2 mps 746 mmHg 60%
    21:00 +15°C° 0 mm 2 mps 746 mmHg 65%
    22:00 +15°C° 0 mm 2 mps 746 mmHg 64%
    23:00 +15°C° 0 mm 2 mps 746 mmHg 64%

    28 April, Sunday

    Time Temperature Precipitation Wind Pressure Humidity
    00:00 +15°C° 0 mm 2 mps 745 mmHg 64%
    01:00 +13°C° 0 mm 3 mps 745 mmHg 68%
    02:00 +13°C° 0 mm 3 mps 745 mmHg 72%
    03:00 +12°C° 0 mm 3 mps 745 mmHg 76%
    04:00 +12°C° 0.4 mm 3 mps 745 mmHg 80%
    05:00 +12°C° 0.4 mm 3 mps 745 mmHg 83%
    06:00 +12°C° 0.4 mm 3 mps 745 mmHg 86%
    07:00 +13°C° 0.1 mm 3 mps 745 mmHg 82%
    08:00 +15°C° 0.1 mm 2 mps 745 mmHg 79%
    09:00 +16°C° 0.1 mm 2 mps 745 mmHg 75%
    10:00 +17°C° 0.4 mm 2 mps 745 mmHg 72%
    11:00 +18°C° 0.4 mm 2 mps 746 mmHg 69%
    12:00 +18°C° 0.4 mm 2 mps 746 mmHg 66%
    13:00 +18°C° 1.3 mm 3 mps 746 mmHg 67%
    14:00 +18°C° 1.3 mm 4 mps 746 mmHg 69%
    15:00 +17°C° 1.3 mm 5 mps 747 mmHg 70%
    16:00 +15°C° 0.1 mm 5 mps 747 mmHg 70%
    17:00 +14°C° 0.1 mm 6 mps 747 mmHg 70%
    18:00 +13°C° 0.1 mm 6 mps 747 mmHg 71%
    19:00 +12°C° 0 mm 5 mps 748 mmHg 72%
    20:00 +10°C° 0 mm 5 mps 749 mmHg 74%
    21:00 +10°C° 0 mm 4 mps 749 mmHg 75%
    22:00 +8°C° 0 mm 5 mps 750 mmHg 72%
    23:00 +7°C° 0 mm 5 mps 750 mmHg 69%
    Show more